Theta_e
295 283 281 281 283 285 286 287 286 286 286 285 284 282 281 281 282 285 286 288 292 288 284 283 285 288 290 292 294 295 297 296 296 295 296 296 298 298 300 301 301 302 303 322 326 326 327 327 327 327 328 330 332 330 332 331 332 333 332 331 330 331 332 331 331 331 331 330 330 331 331 330 332 331 332 332 332 332 332 331 328 326 326 326 327 327
293 281 281 285 287 287 287 289 288 286 285 283 282 281 281 282 280 285 285 289 291 287 285 286 286 287 289 291 293 295 295 295 295 295 295 296 298 298 300 301 301 303 306 308 310 319 326 326 326 325 326 326 327 329 330 330 329 331 333 331 331 331 331 331 331 331 331 331 332 331 330 331 331 331 330 330 331 332 332 331 329 326 327 327 327 326
281 279 284 287 289 290 289 288 287 285 283 283 282 282 281 281 284 287 287 289 290 289 285 287 286 288 290 292 293 293 294 296 298 297 297 297 298 298 299 299 299 300 300 301 303 306 312 318 321 322 323 325 326 327 328 331 331 331 332 333 332 331 331 330 330 330 330 330 331 332 332 331 331 332 332 331 331 332 331 331 330 328 327 327 327 327
277 281 285 288 288 288 286 287 286 285 285 283 283 281 279 283 281 279 287 289 289 287 284 287 286 288 290 292 293 294 295 296 297 296 296 298 296 296 297 297 297 297 297 298 299 301 303 303 304 308 309 310 317 319 322 326 328 329 328 331 330 331 331 331 331 329 330 330 331 332 332 331 330 329 328 331 331 330 329 329 329 327 327 327 327 327
279 284 289 288 287 287 284 286 284 283 281 285 285 283 282 282 283 283 283 286 288 288 289 286 285 285 287 288 287 290 293 293 293 293 294 295 296 297 296 296 297 296 296 296 297 298 299 299 299 300 302 305 306 307 309 313 316 322 324 326 328 329 331 331 330 330 330 329 330 330 329 328 327 327 328 328 327 328 327 326 326 326 327 328 327 327
281 287 289 286 285 286 284 283 283 283 281 282 284 283 283 284 283 284 285 284 282 281 286 285 278 277 283 285 284 287 288 289 291 291 292 293 294 294 294 294 295 296 297 296 296 296 297 298 298 299 299 300 301 303 307 308 310 311 312 313 319 328 329 330 331 330 329 329 329 327 326 324 324 324 324 324 325 327 328 327 328 328 329 329 329 329
283 288 287 283 284 284 283 282 284 285 281 280 281 286 287 286 285 285 284 283 278 276 284 289 278 274 281 281 284 285 286 286 288 289 290 292 293 293 293 294 294 294 295 296 296 296 296 296 296 296 297 298 298 300 304 304 305 306 307 308 310 311 313 314 317 329 329 329 328 327 326 326 325 324 325 327 327 327 329 330 329 329 329 330 330 329
285 286 284 282 282 281 280 279 283 284 282 280 287 289 288 286 285 284 284 283 281 285 285 287 283 275 274 279 284 286 284 284 285 287 288 290 291 293 294 294 294 295 294 294 294 294 294 295 295 295 295 295 296 297 299 301 301 301 303 304 305 307 308 309 312 314 318 326 326 324 324 323 324 325 325 328 329 330 329 329 329 330 330 330 330 330
286 283 284 283 281 280 279 281 283 286 283 283 288 289 287 287 286 285 284 283 283 281 279 283 286 275 274 279 284 285 282 283 283 285 287 288 290 292 292 293 294 295 295 294 293 292 292 292 293 294 294 295 295 296 296 296 298 299 300 301 300 302 303 305 307 309 311 312 316 325 326 325 325 326 327 327 326 326 326 326 327 328 329 331 332 332
284 285 283 287 282 280 282 284 285 285 281 287 289 290 289 288 287 286 284 283 282 279 275 279 281 273 273 278 280 283 282 281 283 285 287 288 289 290 291 292 293 294 294 294 293 293 292 292 292 293 293 294 294 295 296 296 296 297 297 297 297 298 299 301 303 305 306 308 310 311 312 317 323 325 326 325 325 325 325 325 326 327 326 326 328 330
286 293 292 285 281 285 284 285 286 286 287 289 289 287 287 286 284 283 283 281 281 273 274 279 282 278 270 276 278 278 280 283 284 285 286 288 289 290 291 291 292 292 292 292 292 292 292 292 292 292 292 293 293 294 294 294 294 295 296 296 295 296 297 298 298 301 302 305 306 305 307 309 311 313 319 322 324 324 324 325 326 327 327 328 328 329
286 287 284 286 290 288 287 284 287 287 289 287 284 283 282 282 283 282 279 277 274 271 277 279 278 279 270 274 279 283 285 285 284 283 285 286 288 289 290 291 292 292 292 292 292 292 292 292 292 292 291 292 292 292 292 292 293 293 294 295 295 295 297 297 297 297 299 302 302 303 305 305 307 310 311 313 317 321 323 323 324 324 326 327 328 328
279 281 284 286 292 286 283 281 282 286 286 283 282 282 275 273 275 273 276 272 272 272 277 281 282 275 273 277 280 282 283 284 285 285 285 286 288 289 290 291 291 292 291 291 291 291 291 291 291 291 291 291 291 291 291 291 291 291 292 293 292 292 294 297 297 296 297 298 299 300 302 304 305 306 308 310 311 313 314 320 323 323 324 324 324 326
276 283 283 283 286 287 285 277 277 277 281 281 278 278 274 270 270 269 273 275 273 275 279 278 280 274 277 279 282 281 283 284 285 286 287 287 287 288 289 290 290 290 290 290 290 290 290 290 291 291 291 290 290 290 291 291 291 291 290 291 291 292 293 294 294 295 296 297 298 299 300 302 304 304 306 307 308 310 312 313 315 321 323 323 324 325
267 269 277 280 277 285 284 282 281 279 280 279 281 278 276 275 271 269 272 270 272 274 277 280 276 272 274 275 283 284 285 285 286 287 287 288 289 289 289 289 289 289 289 290 289 289 289 289 290 290 290 290 290 290 290 290 290 290 289 290 290 290 291 292 292 292 293 294 296 296 298 300 302 302 303 304 305 307 308 311 313 315 319 323 325 326
272 271 278 284 284 285 282 285 286 283 280 280 282 281 273 272 277 271 274 272 273 274 275 276 274 277 276 282 283 284 284 285 286 286 287 286 288 288 287 287 288 288 289 289 289 288 289 289 289 289 289 290 290 290 289 289 290 289 289 289 289 290 290 290 291 291 292 293 294 294 295 297 299 300 301 302 303 305 306 307 309 310 313 314 318 322
272 270 281 282 286 282 283 286 285 286 271 277 278 271 274 280 278 274 274 276 276 275 273 278 276 278 282 282 282 282 282 283 284 284 284 285 286 286 286 286 287 288 288 288 288 288 288 288 288 289 289 289 290 289 289 289 289 289 289 289 288 289 290 290 291 291 291 292 293 293 293 295 297 297 298 300 301 302 303 305 305 306 307 309 311 313
268 271 279 280 279 283 285 286 287 286 284 278 271 276 281 286 282 275 267 270 269 266 270 277 274 276 276 273 282 281 280 280 281 282 283 284 284 285 285 286 286 286 287 287 287 288 287 286 287 287 289 289 289 289 289 289 289 289 289 289 288 288 289 289 290 291 291 291 292 292 293 294 295 295 296 298 300 301 301 301 302 304 304 305 307 309
278 270 276 281 280 282 286 285 284 285 285 279 276 279 274 268 267 271 270 263 263 261 265 273 275 275 276 275 279 278 279 280 281 283 283 283 285 286 286 285 286 286 286 286 286 286 286 285 285 286 286 287 287 288 289 289 289 288 288 288 288 288 289 289 290 291 291 291 291 292 292 293 294 294 294 296 298 300 299 299 300 301 303 304 305 306
277 269 273 281 279 280 282 278 271 276 281 280 283 277 275 274 270 267 270 269 269 262 263 265 268 269 277 276 279 279 280 281 280 280 279 280 283 285 286 287 287 286 285 285 285 285 285 285 285 285 285 285 286 286 287 287 287 287 288 288 287 288 288 289 289 290 289 290 291 291 292 292 293 293 293 294 296 296 296 298 299 300 301 302 303 304
274 276 268 276 280 279 274 276 274 275 273 275 275 273 274 271 274 273 272 269 265 262 263 262 260 270 277 281 280 279 279 279 280 280 280 281 281 282 284 286 287 287 287 286 285 285 285 284 284 284 285 285 285 285 286 286 286 286 287 287 287 287 287 288 289 289 289 289 290 290 291 291 292 292 293 293 294 294 294 295 297 299 300 301 301 302
272 273 269 274 274 272 274 280 280 279 278 276 275 272 273 271 268 265 264 272 267 266 264 262 262 268 279 284 282 280 280 280 281 281 281 281 281 281 282 283 285 286 286 286 286 286 286 285 284 284 284 284 284 285 284 285 286 285 285 286 286 286 286 287 288 289 289 289 289 289 290 291 291 291 292 292 293 293 293 294 295 297 297 297 299 300
278 276 274 271 273 274 279 282 283 280 278 274 277 274 277 273 272 267 262 264 266 267 271 267 264 266 281 282 281 281 281 281 281 281 281 281 281 281 282 282 283 285 285 284 284 284 284 285 285 284 284 284 284 284 284 284 285 285 285 285 285 285 285 286 287 288 289 288 288 288 289 290 290 290 290 291 292 292 292 293 294 295 294 295 296 298
282 275 271 272 275 278 279 280 281 280 279 276 276 278 275 270 272 269 269 269 266 266 266 267 263 269 280 282 281 282 281 281 280 280 280 281 281 282 281 282 282 284 285 284 283 283 283 283 283 283 284 284 284 284 283 284 284 285 285 284 284 284 285 286 287 287 288 288 288 288 288 289 289 289 289 289 290 290 291 292 293 293 293 294 294 294
271 274 270 267 267 270 273 275 274 273 274 273 273 277 277 276 275 273 272 272 267 266 267 264 259 268 280 283 282 282 282 281 280 280 280 280 281 281 281 282 282 282 284 283 283 282 282 281 280 282 282 282 283 283 284 283 283 283 284 284 284 284 285 285 286 286 287 287 287 287 288 288 288 288 288 289 289 289 290 291 291 292 292 293 292 293
275 272 269 264 261 261 261 262 264 267 272 275 273 276 277 276 275 270 266 267 264 267 269 265 264 273 281 282 282 282 281 280 281 281 281 280 281 281 281 281 281 281 283 283 282 282 281 281 280 280 280 281 282 282 282 282 283 283 283 283 283 283 284 284 285 285 286 286 286 286 287 287 288 288 288 288 288 289 290 290 290 290 291 291 291 291
271 272 271 269 267 266 269 271 275 276 273 270 273 274 274 275 276 275 271 267 265 267 267 270 271 273 275 277 279 280 279 279 280 280 280 280 281 281 281 281 281 281 283 283 282 281 280 280 280 280 281 281 281 280 281 281 282 282 283 283 283 283 284 284 284 284 284 285 285 286 286 286 287 287 288 288 288 289 289 289 289 289 290 290 290 290
271 268 271 270 272 273 274 274 275 275 272 273 272 272 274 274 275 272 267 267 273 268 265 272 275 273 275 277 277 278 279 280 280 280 280 280 280 280 281 280 283 280 281 282 281 280 280 280 280 279 280 280 281 281 281 281 282 282 281 282 282 283 283 285 283 283 283 283 284 284 285 285 285 286 287 288 288 288 288 289 288 289 289 288 288 289
268 265 270 271 271 273 274 274 275 274 273 273 273 273 272 274 273 270 270 273 273 267 266 272 274 272 274 276 278 279 280 279 280 280 281 281 280 280 280 279 279 279 280 281 281 280 280 279 279 279 280 280 280 280 280 280 281 280 280 281 282 281 282 282 282 282 282 282 282 284 285 285 285 286 286 287 287 288 288 288 288 288 288 287 287 289
269 268 269 270 271 272 272 273 274 272 272 273 273 273 274 273 273 274 273 274 274 272 273 274 274 274 276 278 279 281 281 280 280 281 280 279 279 279 279 278 278 279 279 280 280 280 280 280 279 280 280 279 280 280 280 280 280 280 281 282 281 281 281 281 281 281 282 282 282 283 284 284 284 285 285 286 286 287 286 287 287 287 287 287 287 287
269 268 274 269 265 268 272 273 273 273 273 272 273 274 274 274 274 274 273 274 275 274 275 275 274 274 279 281 281 281 280 281 280 279 279 279 279 279 278 278 278 279 279 280 280 279 279 279 279 279 279 280 280 280 281 281 280 280 280 280 281 281 281 281 281 281 281 282 282 282 283 283 283 284 284 285 285 285 286 286 286 286 286 286 286 286
271 267 270 267 265 265 271 271 273 273 272 271 271 272 272 272 270 273 272 275 273 272 274 273 272 273 278 280 281 280 280 280 279 279 279 279 279 279 278 278 278 279 279 280 279 279 279 279 279 279 280 280 280 280 280 280 280 279 280 281 280 281 281 281 281 281 281 281 282 282 283 283 283 283 283 284 284 285 285 285 285 285 285 285 286 286
270 269 266 266 265 265 270 272 271 270 268 268 269 272 273 274 274 275 276 277 277 277 274 271 272 277 279 281 278 279 280 280 280 279 278 279 278 278 278 278 279 279 279 280 279 280 279 279 279 280 280 280 281 281 281 280 280 280 281 280 280 281 281 281 280 280 281 281 281 282 282 282 282 282 282 283 284 284 284 284 284 284 284 284 285 286
270 269 267 269 263 264 267 269 270 266 263 266 277 279 277 275 275 274 274 275 277 278 276 277 278 279 280 280 279 279 279 279 279 279 280 278 277 277 279 279 280 280 280 279 279 279 279 280 280 281 280 280 280 280 281 280 280 281 280 281 280 280 280 280 280 280 280 281 281 282 282 282 282 282 282 283 283 284 284 283 283 283 284 284 285 285
272 271 267 268 265 264 265 267 265 261 265 276 278 279 280 279 277 276 276 277 277 278 278 278 278 279 280 280 280 280 279 280 280 279 279 279 279 279 279 280 280 279 279 279 279 280 280 280 280 280 280 280 280 280 280 280 280 280 280 280 280 280 280 280 280 280 280 280 281 281 281 281 281 281 282 282 282 283 282 283 283 283 283 283 283 284
273 270 269 267 267 268 265 265 261 264 270 277 278 279 280 280 277 276 274 276 277 277 278 277 278 279 280 280 280 280 279 279 279 279 279 280 280 280 280 279 279 279 279 279 279 280 280 279 280 280 280 281 280 280 280 280 281 280 281 281 280 280 280 280 279 280 280 280 280 281 281 281 281 281 282 282 282 282 281 282 282 282 282 282 282 283
275 274 271 266 268 262 264 264 266 272 272 274 275 275 275 273 273 273 269 273 276 277 277 277 277 278 279 279 279 278 278 277 276 278 279 280 281 281 281 280 280 280 280 280 281 281 282 281 281 281 281 279 279 280 280 281 281 281 280 280 280 280 280 279 279 279 280 280 280 280 281 281 281 281 281 282 281 281 281 281 281 281 282 281 282 282
277 271 271 265 265 268 264 263 264 263 261 268 276 277 279 279 277 276 272 271 277 278 279 278 277 277 278 278 278 277 277 275 274 275 277 278 280 281 281 281 280 280 281 281 281 281 280 280 280 280 280 279 280 280 281 280 280 280 280 280 280 279 279 279 279 280 280 280 280 280 281 281 281 281 281 281 280 280 280 280 281 280 281 281 281 281
275 276 272 268 267 267 265 263 263 260 265 274 276 277 278 278 278 277 271 268 275 277 278 278 277 278 277 277 276 277 274 272 273 275 278 279 279 279 279 279 279 281 281 280 279 279 280 280 280 279 280 279 279 280 280 280 280 280 280 280 280 280 279 279 280 280 280 280 280 280 281 281 281 280 280 280 280 280 279 279 280 280 281 281 280 280
270 271 271 268 267 267 265 263 262 266 267 274 276 276 277 278 278 273 264 265 274 277 278 278 277 277 277 276 276 275 274 271 273 276 278 279 279 279 279 280 279 278 278 279 280 280 280 280 280 279 279 279 280 280 280 280 280 280 280 280 280 279 279 279 280 280 280 280 280 280 280 280 280 280 280 279 279 279 279 279 280 280 280 280 280 279
267 269 269 265 266 267 268 266 267 268 275 278 277 277 277 279 274 264 264 272 276 277 278 278 277 277 277 276 276 275 276 278 278 279 278 279 279 279 279 279 279 280 280 279 280 282 280 280 280 280 279 280 280 280 280 280 280 279 280 280 279 279 280 280 280 280 280 280 280 280 280 280 280 279 279 279 278 278 279 279 279 279 279 279 279 278
267 267 268 268 266 265 266 264 265 268 275 278 279 278 278 274 264 265 274 278 277 277 277 278 278 278 277 277 276 277 278 279 280 279 279 279 278 279 279 279 279 279 279 280 280 280 280 280 279 279 280 280 280 280 280 279 279 279 279 279 279 279 280 280 280 280 280 279 279 279 279 279 279 279 278 278 278 278 278 278 279 278 278 278 278 277
269 265 265 265 267 267 266 264 263 262 271 278 278 277 278 271 272 278 277 277 278 278 277 277 278 279 278 277 278 278 278 278 278 279 279 279 279 279 279 279 279 279 279 279 279 279 280 280 280 280 279 280 279 279 279 279 278 279 279 279 279 280 280 280 280 279 279 279 278 278 278 278 277 277 277 277 277 277 276 276 276 276 277 277 277 277
275 269 269 269 272 265 265 263 264 272 276 280 278 273 277 279 280 279 278 277 278 278 278 277 277 278 278 278 278 278 278 278 278 278 279 279 279 279 279 279 279 279 279 279 279 279 279 279 279 279 279 279 279 279 279 279 278 279 278 278 280 280 280 279 279 278 278 277 277 277 276 276 276 276 276 276 276 275 274 274 275 275 276 277 277 277
277 275 276 273 276 272 270 271 275 275 278 280 280 278 280 282 282 281 279 279 278 278 278 278 278 278 278 278 278 278 278 279 279 279 279 279 279 279 279 279 279 279 279 279 279 279 279 279 278 279 278 279 279 279 279 279 278 278 278 279 280 279 278 278 277 276 276 275 275 275 275 275 275 275 275 274 274 273 273 273 274 274 275 276 276 276
280 280 281 278 277 280 280 281 281 279 279 279 281 281 281 281 281 281 280 279 280 280 280 280 279 279 278 278 278 278 278 278 279 279 279 279 279 279 280 279 279 279 278 278 278 278 278 278 278 277 277 278 278 279 279 278 277 276 278 278 278 278 277 276 275 274 274 274 274 274 274 273 273 273 273 273 273 273 273 273 274 274 274 275 275 276
278 279 278 275 278 273 272 279 279 280 281 281 282 283 283 283 282 281 280 280 280 281 281 281 280 280 280 279 279 279 279 279 279 279 279 279 279 279 279 279 279 279 278 278 278 278 278 277 277 277 277 277 278 278 277 275 276 277 277 276 276 276 275 274 273 273 273 272 272 273 273 272 271 271 271 271 272 272 273 274 274 274 274 275 275 275
275 281 276 277 276 274 275 279 280 281 281 282 282 281 281 283 283 282 282 282 282 282 281 281 280 279 279 279 279 279 279 279 279 279 279 279 279 279 279 279 278 278 278 278 278 277 276 276 276 276 276 276 277 277 276 275 275 275 275 275 274 274 273 272 272 271 271 271 271 271 271 270 271 271 270 270 271 271 272 273 273 273 274 274 275 275
279 280 273 277 275 277 279 280 280 281 280 280 281 282 283 283 282 281 281 281 281 281 281 281 281 280 280 280 280 280 279 279 279 279 279 279 279 279 279 279 278 278 277 276 276 275 276 274 274 275 275 275 276 275 274 273 274 274 273 273 273 272 271 271 271 270 269 269 269 269 269 269 269 269 269 270 270 272 273 273 273 274 275 277 278 278
279 274 279 278 274 274 274 277 280 274 275 278 280 281 282 283 282 282 282 281 281 281 281 280 281 281 281 281 280 280 279 279 279 279 278 279 279 278 278 278 278 277 277 276 275 273 272 271 272 272 272 273 274 273 272 272 272 272 272 272 271 270 269 269 268 268 268 268 268 268 268 268 268 269 269 270 270 271 273 276 277 277 274 273 275 277
278 279 278 275 275 275 280 281 282 281 280 281 282 283 282 282 282 281 280 281 281 281 281 280 280 280 280 280 280 279 279 279 279 279 279 279 279 279 279 278 277 277 277 274 272 271 272 273 273 271 271 272 272 271 271 271 271 271 271 270 269 268 268 267 267 267 267 267 266 267 268 268 268 268 269 269 270 271 270 270 271 274 276 275 274 275
Wind_Speed
2 7 10 10 9 12 12 10 11 10 9 10 9 8 9 10 10 10 10 8 10 11 7 5 8 7 7 7 8 9 8 8 7 2 5 2 1 4 3 1 3 4 6 3 5 8 7 6 4 3 4 3 3 6 6 4 3 3 7 7 7 4 4 4 5 5 5 5 5 5 5 6 7 8 7 6 5 5 6 6 5 7 7 7 7 8
1 6 9 11 10 12 12 9 8 8 7 9 8 8 8 8 9 8 10 11 9 7 5 3 5 7 8 8 7 6 5 7 5 6 6 6 1 9 18 17 15 13 14 21 19 17 8 4 3 2 2 1 1 1 7 6 8 6 6 8 7 6 6 5 5 5 6 6 6 6 6 5 6 6 7 7 7 7 7 8 7 6 7 8 8 8
4 9 10 12 10 9 8 7 4 4 4 5 5 6 7 6 8 9 3 8 6 6 6 8 8 8 9 7 5 5 3 3 13 15 17 22 20 16 17 17 18 18 18 19 19 19 18 18 18 15 14 9 6 3 1 4 6 6 5 6 6 6 6 6 4 4 5 4 5 7 5 5 4 5 6 6 6 8 8 9 10 8 8 8 8 8
6 8 12 11 10 9 8 7 10 6 3 3 3 4 5 6 7 5 1 4 9 5 5 4 7 7 7 7 8 3 14 14 15 17 22 20 20 19 17 17 17 18 18 19 18 17 17 19 20 19 19 20 18 15 15 13 5 4 5 5 1 3 5 6 6 6 5 4 6 6 6 8 7 5 4 4 4 6 8 9 9 8 7 8 8 8
5 7 9 11 10 9 9 7 8 7 6 5 6 4 5 7 7 6 8 10 11 10 10 9 4 7 12 12 14 15 14 21 18 21 22 18 16 14 15 18 17 18 18 18 20 21 21 22 20 19 18 16 16 17 19 19 18 13 13 9 5 5 4 3 4 6 3 3 2 3 2 1 1 3 4 6 8 9 8 8 8 8 8 8 9 9
4 6 6 11 12 8 7 5 8 7 6 7 1 2 4 5 8 10 11 11 6 6 3 7 4 5 9 13 19 16 17 19 17 20 20 19 18 18 18 16 16 16 16 18 19 18 20 20 20 22 22 20 17 18 16 15 15 17 17 20 20 11 9 8 6 2 4 7 4 3 3 3 3 5 5 7 7 6 6 8 7 8 9 9 10 10
3 6 6 7 11 9 7 4 4 5 7 7 2 2 6 8 8 9 10 6 4 4 6 8 4 5 5 15 15 14 17 18 18 21 18 17 17 16 16 16 16 17 17 18 19 20 21 21 21 21 19 18 19 18 15 16 18 21 20 19 17 15 14 16 18 11 4 3 2 1 3 6 7 8 7 6 6 6 6 5 6 6 7 9 11 11
2 6 8 6 6 7 7 10 9 8 7 5 4 8 10 11 11 10 9 6 6 4 8 3 5 8 9 11 12 12 16 18 20 19 18 16 18 16 16 17 16 17 18 16 18 20 19 19 19 18 18 18 18 17 17 18 18 20 19 18 17 14 16 17 16 16 17 9 1 0 3 4 6 5 5 6 6 3 3 4 4 5 6 7 9 9
1 6 9 8 7 8 8 7 11 5 4 8 11 9 12 11 9 8 6 5 5 4 4 7 5 4 8 8 9 13 15 18 18 17 18 17 17 17 18 17 17 17 18 18 16 18 18 18 17 17 18 18 19 18 18 17 16 16 17 16 18 17 17 16 18 16 15 14 14 8 3 5 4 6 6 6 6 7 6 7 8 7 6 5 4 6
2 3 4 3 6 8 10 14 13 7 2 7 11 12 11 9 6 6 4 5 4 3 8 6 3 8 7 8 9 10 15 15 13 13 15 15 15 15 16 16 17 16 16 16 16 15 15 15 15 16 17 20 17 15 15 15 16 17 17 19 21 19 16 16 18 16 17 18 17 16 16 15 10 6 4 3 5 5 3 7 8 8 8 8 8 7
5 4 4 3 4 4 10 14 8 4 8 13 14 11 11 6 4 1 2 1 1 7 9 8 5 4 5 10 10 11 14 13 11 11 11 15 15 14 13 15 15 16 15 14 14 14 13 12 15 16 19 16 17 15 17 17 17 16 16 16 19 18 15 18 19 18 19 17 16 15 15 14 13 15 12 9 5 4 5 5 8 8 7 7 7 7
7 3 5 2 4 5 5 9 7 7 4 8 6 10 7 7 3 1 2 0 3 5 4 13 17 9 8 5 8 11 10 11 11 12 13 14 15 13 12 14 15 15 14 14 14 14 14 15 16 16 17 17 16 17 17 16 14 14 14 15 18 18 17 18 18 17 18 16 16 15 15 15 14 12 10 11 12 10 7 5 6 5 5 5 6 6
6 3 4 7 3 12 9 9 7 7 4 11 9 10 10 6 2 4 2 6 7 3 2 2 3 9 11 6 7 9 9 8 9 10 10 10 11 12 12 13 11 11 13 13 13 13 14 15 16 15 15 15 17 16 17 17 14 14 14 17 17 18 16 14 13 18 17 16 16 15 14 14 12 13 14 12 12 11 12 12 9 8 7 6 5 6
7 3 8 9 2 8 8 11 13 10 14 12 11 9 9 7 7 6 6 1 2 1 2 10 6 7 5 5 7 7 8 6 6 7 8 8 7 10 12 10 10 9 10 11 11 12 13 14 12 12 12 14 14 16 16 15 15 14 15 17 16 16 15 14 14 14 14 15 14 14 13 13 11 12 12 12 12 12 10 9 11 12 8 7 8 7
6 6 6 11 6 9 6 5 6 5 11 7 5 8 4 4 3 4 4 5 4 0 2 3 0 1 2 1 4 5 7 8 7 7 6 7 8 7 8 8 9 10 9 9 11 12 13 13 12 11 12 12 13 14 14 13 14 14 15 15 17 17 17 16 16 14 14 12 13 13 13 12 12 12 11 10 10 11 12 11 11 10 12 10 9 7
2 6 5 8 6 6 7 6 5 8 6 4 5 2 3 3 0 2 3 2 2 3 1 6 3 3 2 1 1 2 3 6 8 7 6 7 8 7 7 10 9 10 10 9 10 11 12 11 11 12 12 12 12 12 12 14 13 14 13 13 14 14 14 14 15 14 14 13 11 12 12 11 11 11 11 10 11 11 11 12 11 11 12 11 13 11
4 3 5 12 7 4 6 7 5 6 6 10 5 6 7 6 3 3 3 5 2 2 4 4 4 2 1 3 1 2 1 4 6 7 6 7 7 7 7 8 10 9 9 9 9 9 10 10 12 11 12 12 12 12 12 12 12 13 13 14 15 14 13 15 14 13 13 13 13 14 14 12 12 13 13 12 13 13 12 10 10 10 10 12 12 12
2 11 12 5 10 4 7 7 2 8 5 4 3 6 10 1 2 0 1 3 4 3 0 3 5 4 3 1 2 0 1 2 1 3 4 5 5 7 8 6 8 9 8 7 7 6 8 8 10 10 10 11 11 12 12 12 11 10 10 12 14 14 16 15 14 14 13 14 13 13 13 13 12 11 10 10 10 10 10 12 11 10 11 12 11 11
3 6 4 0 6 8 8 7 2 6 7 5 3 5 5 2 4 6 0 4 4 2 3 0 3 2 5 2 3 4 2 3 3 1 3 5 6 6 5 6 5 5 6 6 6 6 7 8 8 9 9 9 9 10 10 10 10 10 10 10 11 14 13 13 12 12 11 12 10 10 12 12 11 11 11 10 9 8 9 11 11 11 11 11 12 13
3 1 6 2 10 10 4 4 4 9 5 3 3 5 3 1 0 2 0 2 0 2 4 1 1 1 1 4 5 6 5 3 2 2 1 3 4 4 4 3 4 3 3 4 5 6 5 6 7 7 9 10 10 10 9 9 9 11 10 10 11 11 11 12 14 13 13 13 12 12 12 12 11 12 11 11 10 9 10 10 10 11 11 11 10 10
2 0 3 5 11 8 2 3 2 5 9 9 9 8 5 2 2 4 2 2 1 1 1 2 3 1 1 4 5 5 4 2 2 2 2 3 4 3 3 3 2 2 2 2 3 4 5 5 6 5 8 7 7 7 8 8 9 9 9 10 11 13 12 12 12 12 12 12 13 14 14 13 13 14 12 13 12 10 10 10 9 9 9 10 10 10
1 2 3 9 9 4 1 1 2 2 3 2 3 4 5 6 8 6 1 1 3 1 1 1 6 2 1 1 6 4 3 3 3 2 2 2 3 2 2 4 3 2 2 3 3 4 5 4 4 4 5 5 7 8 9 8 7 8 9 8 10 10 10 11 11 10 11 11 11 13 13 13 12 12 12 13 12 12 12 11 11 10 10 10 10 9
2 2 3 7 4 8 1 3 1 1 1 1 1 3 4 1 1 2 1 3 2 3 0 2 0 4 1 3 4 4 3 5 3 2 2 1 2 1 2 3 4 2 2 3 3 3 3 3 4 4 6 7 7 7 6 7 8 8 8 7 8 10 11 10 10 9 9 9 10 12 12 12 11 12 13 13 12 13 13 13 12 11 11 11 10 10
4 1 3 5 6 1 3 3 1 2 1 1 1 3 2 1 1 0 1 1 1 3 2 1 1 4 2 4 4 5 5 5 3 3 1 1 1 1 2 1 3 4 1 2 2 2 1 3 3 4 6 7 8 7 7 6 6 7 6 6 7 9 10 10 10 10 10 9 10 10 11 11 11 12 12 13 12 13 13 12 12 12 12 12 11 12
1 1 0 4 3 1 1 2 1 2 1 1 1 0 2 1 1 1 1 0 0 3 1 1 3 0 3 4 4 5 8 7 6 5 3 2 1 1 2 2 1 3 2 1 1 1 2 3 4 4 4 5 5 6 6 6 5 6 7 6 7 7 7 8 8 9 10 10 10 10 10 11 10 11 12 12 11 13 13 12 12 11 12 13 13 13
1 2 2 2 3 5 6 5 5 6 6 5 3 0 1 3 3 1 1 1 2 2 1 2 5 3 2 5 5 9 3 4 4 5 3 3 0 1 0 3 2 2 4 1 0 1 1 3 4 5 5 4 4 5 5 5 6 6 5 6 6 7 7 7 7 8 10 10 10 10 10 10 10 11 11 11 11 12 11 11 11 12 11 11 14 14
1 1 2 2 2 4 5 5 3 6 8 5 4 6 7 3 1 3 2 3 5 3 5 8 6 9 8 8 9 7 4 6 1 3 2 1 0 1 0 2 3 4 3 0 1 1 1 3 4 4 5 4 5 5 5 5 6 6 5 6 6 6 6 7 6 8 8 10 10 10 10 10 10 11 10 10 11 10 10 10 10 11 12 11 12 13
0 1 4 5 8 10 9 12 10 5 11 13 12 10 4 4 4 5 5 7 1 5 9 6 10 12 11 5 3 6 7 6 1 1 0 0 0 0 0 2 4 4 4 1 1 1 1 2 3 4 5 5 5 6 5 5 5 5 5 7 6 6 6 6 6 7 7 8 9 9 10 9 9 9 10 10 10 10 10 10 10 10 11 11 12 12
0 2 3 4 7 7 7 11 12 10 8 10 11 12 12 6 5 6 8 10 7 6 13 4 7 8 11 7 8 7 8 3 0 1 0 1 2 1 1 3 4 4 5 3 2 2 2 3 4 4 4 5 5 5 6 5 5 5 5 5 6 6 6 6 6 7 7 8 8 9 9 10 8 8 9 10 10 10 10 10 10 10 10 10 11 10
0 4 3 2 8 9 10 12 13 12 10 10 12 13 12 10 10 10 11 9 10 13 12 14 13 17 15 13 10 12 1 1 1 1 2 3 3 1 2 3 4 5 5 4 3 2 2 3 4 4 4 5 5 6 6 6 5 5 5 7 7 6 6 6 6 6 7 8 8 9 9 9 9 10 10 10 10 10 10 10 10 11 11 11 11 11
2 3 4 2 3 7 9 8 11 10 9 12 13 11 13 12 10 9 8 10 10 12 14 14 16 18 14 7 9 1 2 2 2 4 4 4 2 1 3 4 4 6 6 5 4 3 2 3 4 4 5 5 5 6 7 6 5 4 5 6 6 6 6 5 7 7 7 8 8 8 8 8 8 9 10 10 10 9 10 11 10 11 11 11 11 12
1 3 3 0 3 5 1 0 2 4 8 13 18 19 15 13 10 8 9 8 8 11 9 9 11 14 8 3 0 3 4 5 6 5 4 3 2 2 4 5 6 6 7 6 4 2 3 4 4 5 6 6 6 7 7 7 5 5 6 6 6 7 6 6 6 7 7 8 9 8 9 8 9 9 10 9 10 11 10 10 11 11 11 12 13 12
3 1 2 3 4 6 1 2 5 6 9 11 10 10 13 10 9 5 6 8 10 9 9 9 13 7 7 4 4 4 5 6 5 3 1 1 2 4 5 7 8 8 7 6 4 2 3 4 5 6 6 5 6 8 8 7 7 7 7 6 6 6 6 7 6 7 8 8 8 9 9 9 9 9 9 9 9 10 11 11 11 11 12 12 12 12
2 0 1 1 2 3 3 6 6 5 5 7 1 4 3 7 8 8 8 6 6 7 8 6 9 6 6 9 10 10 7 6 2 1 1 3 4 4 6 8 10 9 7 4 2 3 4 4 5 6 5 5 6 6 7 7 8 8 6 7 6 6 7 7 7 7 8 8 8 9 9 9 10 10 9 9 8 9 11 11 12 12 11 11 11 12
2 2 3 2 2 5 3 7 4 2 10 2 2 3 2 2 2 7 11 9 8 9 10 13 13 11 9 9 10 10 6 3 2 3 2 2 4 6 9 11 9 6 3 2 5 6 6 6 5 5 5 6 6 6 7 8 7 7 7 6 8 7 7 6 7 7 7 8 8 8 9 9 10 11 10 9 9 10 10 10 12 12 11 10 11 12
5 3 2 2 3 4 2 2 1 9 4 13 17 13 8 8 6 2 9 11 11 11 11 13 14 12 11 10 8 5 4 4 3 4 4 4 5 8 8 7 4 2 4 5 5 6 5 5 6 7 8 6 5 5 5 8 9 9 10 8 8 8 7 7 7 8 7 8 8 8 9 9 10 10 10 10 10 10 10 11 11 12 12 11 11 10
5 3 2 3 3 3 3 3 9 11 17 11 6 1 2 3 4 6 6 7 5 5 6 8 8 7 6 5 5 5 3 3 5 7 3 5 7 7 4 2 1 3 4 5 6 9 9 8 7 8 7 5 5 5 7 9 9 10 9 8 8 8 8 7 8 8 8 8 9 10 9 9 10 10 11 11 10 11 11 12 12 11 10 12 12 12
6 6 2 3 4 4 4 6 5 2 5 6 1 3 5 8 9 7 3 11 5 11 13 13 11 11 9 6 5 2 3 6 11 9 3 5 6 3 2 3 4 5 7 10 9 8 6 6 6 7 5 6 6 7 8 7 8 9 9 9 9 8 9 8 9 9 9 9 9 10 9 9 10 11 11 10 10 11 11 11 11 11 10 11 12 13
3 3 3 1 4 5 2 3 3 4 8 2 2 4 5 5 6 3 4 14 6 12 10 7 10 8 7 6 4 1 3 8 12 8 4 5 4 3 5 5 5 8 10 9 7 7 7 8 7 6 6 6 8 8 8 9 9 10 10 10 10 9 9 10 10 10 10 10 10 10 9 9 10 10 10 10 10 10 12 13 12 11 10 10 11 13
1 2 2 4 7 7 3 3 9 5 8 1 4 4 5 5 6 7 7 7 2 1 5 7 8 6 5 4 4 5 7 11 12 6 2 5 5 5 6 10 8 6 6 6 7 7 7 5 6 7 6 7 9 9 9 9 9 10 10 10 9 10 11 11 11 10 9 10 10 10 10 9 11 11 10 9 10 11 12 12 12 12 12 11 10 12
4 4 7 11 8 9 10 9 6 10 9 13 5 5 6 4 6 2 9 10 5 2 3 3 5 5 5 6 5 9 8 9 10 7 5 5 7 6 5 5 7 7 9 7 7 7 7 7 7 8 8 8 9 9 8 8 9 11 11 11 10 11 12 11 10 9 9 10 10 11 11 11 10 10 10 9 11 12 11 11 12 12 12 13 13 12
3 2 4 3 7 11 8 8 12 11 14 15 8 12 7 3 2 10 8 4 7 6 5 6 7 6 6 7 7 8 9 9 10 8 7 7 7 7 7 7 7 7 6 6 8 6 7 7 7 9 9 8 9 8 7 8 11 12 12 12 12 12 11 10 9 9 9 11 12 12 12 11 10 9 10 11 12 12 12 11 12 12 14 13 13 15
11 8 6 10 5 2 4 6 5 11 3 5 9 5 6 5 9 8 2 3 6 7 6 6 7 8 7 9 8 10 9 8 8 10 11 10 8 9 9 8 9 9 8 8 8 7 8 9 11 11 10 8 7 7 7 8 11 12 12 13 14 12 10 9 9 10 11 12 13 12 11 10 11 12 11 12 12 12 13 13 14 14 14 14 15 15
10 3 4 8 8 6 7 9 12 12 1 8 16 10 11 18 9 4 2 5 5 4 6 7 7 7 7 9 10 9 9 8 9 8 9 9 8 8 9 9 9 8 8 7 7 8 8 10 9 9 8 8 6 6 6 8 11 11 12 13 12 11 10 10 11 11 11 11 11 11 11 12 12 13 12 12 12 12 14 16 15 14 13 13 13 13
16 12 9 8 8 10 11 13 10 2 6 9 12 5 8 15 11 7 6 8 7 6 5 6 7 7 7 8 10 10 11 10 11 10 11 11 10 10 10 10 9 10 10 10 10 9 7 9 10 10 9 8 8 8 9 7 9 10 12 12 10 11 11 11 11 11 11 11 11 12 12 12 12 13 11 12 12 14 15 16 15 14 13 13 13 13
7 18 8 5 13 9 15 15 7 7 10 10 10 7 5 6 7 7 9 10 8 10 9 10 9 7 7 7 8 9 9 9 11 12 11 10 10 10 9 9 9 8 8 7 8 8 9 9 9 9 10 10 8 9 7 6 5 9 11 10 9 11 11 11 12 12 12 12 12 13 13 14 14 13 13 14 13 14 14 15 15 14 13 13 13 13
11 4 9 11 8 2 16 7 20 23 19 13 13 13 12 11 11 9 10 12 12 11 11 10 10 10 10 9 11 13 12 10 12 12 9 8 9 9 9 10 10 9 9 10 10 8 8 6 9 9 9 10 8 8 6 5 5 8 10 11 11 10 10 11 12 13 12 13 13 13 12 13 12 13 14 15 14 13 13 13 13 13 14 13 13 13
10 12 11 18 16 13 24 11 11 14 9 9 11 13 15 16 15 13 12 11 11 11 10 10 8 10 7 10 11 12 13 10 10 11 11 10 10 10 10 11 10 8 8 8 8 7 6 7 7 8 8 10 9 7 6 7 8 9 9 10 10 10 10 11 12 12 12 13 12 11 12 13 15 16 14 14 13 13 13 13 13 13 14 13 13 13
4 11 12 10 10 19 17 20 26 23 13 13 15 12 13 13 12 11 10 11 12 13 14 12 9 10 9 12 11 11 13 13 11 12 12 11 12 11 12 11 10 9 8 7 6 6 7 6 6 6 7 9 8 7 7 9 9 9 10 10 9 9 9 10 10 11 12 12 12 13 13 13 13 13 13 14 14 14 13 14 14 14 14 14 11 11
6 13 13 9 16 18 16 21 12 8 13 9 16 22 21 18 17 18 16 14 13 14 14 14 13 11 11 11 11 11 13 13 11 9 11 11 11 10 9 9 9 9 7 6 5 4 4 5 5 6 7 9 8 8 8 9 10 10 10 8 6 6 8 9 10 11 13 12 12 13 13 12 12 13 13 13 14 15 14 15 18 17 15 15 20 27
15 18 12 15 17 21 20 16 13 15 17 14 12 10 10 12 14 17 17 16 16 15 14 13 13 12 12 11 9 10 12 13 12 10 13 13 13 12 12 10 9 8 7 4 3 5 6 7 7 7 8 9 7 8 8 9 9 9 9 7 5 5 8 9 10 11 12 13 12 13 13 13 13 12 13 14 15 13 13 14 17 26 32 30 30 32
Wind_Direction
254 20 17 8 355 344 334 325 308 307 301 298 290 287 290 290 285 289 281 307 0 328 272 263 279 268 279 278 285 296 298 307 298 310 331 286 355 323 293 53 343 344 350 351 86 125 149 162 168 155 145 168 158 144 147 137 114 158 157 159 177 195 206 187 173 179 195 197 204 227 209 188 184 195 207 209 215 200 201 207 211 199 185 177 176 187
58 31 19 1 3 341 331 329 329 316 306 304 305 296 285 281 284 296 327 4 348 350 315 287 278 280 272 272 285 291 288 295 316 350 341 308 25 30 30 26 21 21 26 27 20 12 15 38 74 77 91 85 201 134 146 166 162 203 189 175 170 170 206 223 208 187 188 185 189 194 208 200 188 188 199 201 204 217 218 221 225 209 189 184 182 187
26 31 357 354 354 339 329 336 324 307 301 299 289 293 290 287 305 309 347 351 334 344 309 317 301 285 278 278 258 241 286 325 32 35 48 49 42 38 35 34 31 29 30 28 24 27 31 21 16 12 360 358 349 349 86 147 168 189 184 173 161 173 184 214 227 195 203 203 198 183 202 224 218 191 190 201 204 205 208 209 217 215 201 187 192 184
25 10 349 351 340 340 355 4 14 330 265 266 284 283 296 328 337 335 333 255 304 302 283 288 267 270 293 299 293 1 29 35 49 42 48 43 47 43 40 39 37 35 30 28 25 27 28 31 29 26 24 17 13 1 345 336 336 339 12 26 72 204 197 204 215 218 215 208 201 207 194 184 200 221 224 241 237 243 226 218 216 216 196 192 192 190
39 346 336 345 340 344 0 27 19 1 340 337 329 302 308 336 316 306 311 311 301 280 261 245 264 4 358 14 31 37 49 48 37 43 42 42 45 46 46 44 43 39 33 31 30 27 26 28 26 26 25 25 25 20 16 11 11 10 3 330 307 311 296 278 250 229 274 267 198 197 237 2 248 206 196 206 216 215 210 207 200 206 193 188 191 192
31 354 352 344 343 344 8 13 29 360 333 328 34 101 320 310 312 306 309 325 318 310 243 192 140 34 353 19 28 19 32 43 40 48 44 35 33 37 41 45 41 41 37 37 36 32 31 28 28 27 25 24 23 23 17 16 15 23 23 15 11 356 351 331 286 278 221 221 200 188 203 221 234 230 210 221 222 213 209 209 211 209 201 194 193 194
7 330 5 353 336 342 7 358 27 8 328 316 358 293 308 295 291 291 301 327 312 322 318 23 353 87 10 36 32 18 34 33 31 40 41 41 40 34 39 39 38 37 36 36 33 29 30 30 31 28 26 24 23 21 19 19 19 26 23 19 15 13 16 12 355 322 243 234 226 243 243 231 216 217 226 222 221 222 227 222 215 216 209 203 199 197
345 344 359 354 342 358 359 347 336 350 322 296 309 301 309 306 302 304 308 290 287 291 279 127 114 91 34 34 34 25 37 37 32 27 33 36 40 41 40 39 35 38 41 38 34 32 31 31 30 30 30 30 29 24 25 24 23 23 22 20 15 12 18 13 4 7 7 336 318 117 290 289 290 270 253 257 251 272 294 275 254 241 233 218 210 207
339 346 4 352 350 0 351 315 304 330 316 275 289 307 299 294 293 298 307 314 287 315 49 101 177 65 34 21 25 29 41 39 35 25 25 30 34 38 39 39 41 38 40 39 37 35 33 30 29 29 30 28 30 31 29 29 25 25 25 23 21 21 23 11 10 11 10 16 5 358 287 246 272 285 277 292 287 253 259 267 274 283 295 294 261 229
328 54 339 325 1 348 325 318 310 294 289 278 294 291 271 265 248 260 291 296 319 10 27 29 110 95 51 12 23 32 42 38 37 35 29 28 32 35 37 36 39 40 37 37 39 37 35 32 32 31 30 30 29 28 30 30 28 23 23 23 24 18 18 14 12 8 16 20 19 15 4 359 337 315 307 270 282 301 249 268 262 246 246 248 258 265
316 137 195 37 10 324 318 309 304 282 224 265 292 293 291 189 191 131 275 343 250 55 32 27 53 96 75 23 26 28 29 27 33 39 37 34 33 34 39 40 39 38 34 34 35 35 32 31 33 28 31 28 27 25 27 26 25 24 22 21 25 18 16 19 13 7 17 21 22 18 7 359 359 356 350 335 307 296 296 248 249 251 240 236 240 230
341 71 25 45 184 316 313 321 345 316 245 313 318 343 330 76 92 58 296 268 60 77 69 63 56 40 100 27 27 32 36 33 30 37 37 40 35 33 36 41 40 35 35 33 32 28 25 26 27 26 26 24 22 23 25 26 24 25 21 20 23 21 21 19 13 9 16 18 19 16 10 6 0 357 357 355 350 338 306 307 300 282 276 257 256 229
350 23 38 7 157 357 348 341 346 336 346 347 343 359 25 1 352 43 20 38 35 43 340 281 143 62 58 48 21 21 25 26 32 33 37 35 39 40 40 41 41 37 34 34 31 28 27 26 21 20 21 20 21 21 17 19 20 21 22 21 21 21 18 17 16 15 12 16 18 12 6 4 4 5 360 360 356 353 350 341 327 317 308 285 264 259
319 279 28 351 319 356 6 11 345 356 346 347 3 354 16 11 22 20 13 84 116 61 72 86 45 76 118 74 11 18 11 20 26 35 37 40 41 42 43 39 39 44 40 37 32 32 31 25 21 22 21 22 20 18 16 15 17 16 16 16 18 19 17 13 16 21 17 14 11 10 8 3 3 7 5 4 355 350 346 344 341 332 311 303 296 289
358 345 356 10 357 334 14 17 333 301 314 350 340 27 29 55 6 347 348 352 347 351 278 346 355 125 163 51 349 8 357 12 20 28 32 35 40 43 40 42 44 43 45 37 35 32 30 25 24 24 22 22 20 17 15 14 13 14 14 12 11 11 11 11 11 12 16 14 12 10 5 4 4 4 4 5 359 351 346 344 343 342 336 327 314 303
332 242 281 13 306 332 5 341 329 326 299 332 328 6 58 30 87 267 272 291 323 340 23 24 47 355 56 222 277 319 9 16 17 27 23 33 37 35 31 35 33 34 36 34 32 30 27 27 24 22 21 19 18 17 16 15 12 11 10 10 12 9 6 8 7 10 10 7 3 7 7 6 8 5 1 360 2 359 355 350 349 346 342 338 336 333
331 300 334 325 321 9 3 334 332 346 12 319 4 18 310 253 140 277 280 237 196 168 74 140 126 83 329 246 220 241 83 26 19 22 19 22 30 31 36 31 30 26 28 30 28 27 24 23 26 22 18 15 15 14 15 14 11 9 6 7 6 4 7 7 6 7 5 1 1 2 0 2 5 7 8 359 354 354 352 353 350 349 343 341 342 335
46 287 295 302 346 8 351 317 292 37 351 334 24 344 306 77 135 138 312 332 4 47 93 174 140 186 196 133 227 74 85 101 62 26 26 27 14 32 30 24 22 24 20 21 26 25 28 22 20 18 17 15 14 10 8 9 9 6 8 8 3 3 3 4 2 4 2 358 359 358 357 359 359 358 359 357 350 350 350 351 352 349 352 349 338 335
357 306 302 142 4 325 344 348 90 22 16 26 306 342 31 346 4 313 31 8 351 13 328 159 150 168 216 113 175 128 90 91 126 93 43 35 34 31 23 28 15 16 17 12 19 18 16 17 16 18 11 10 9 8 4 2 1 2 7 6 6 3 359 359 359 358 359 1 357 353 352 352 353 353 352 348 345 347 353 352 352 350 347 344 346 344
296 258 299 8 15 310 327 26 21 327 350 4 320 13 319 159 174 359 332 247 139 297 22 280 359 252 176 142 163 133 112 76 73 112 75 50 49 27 18 19 20 22 19 7 13 20 11 13 16 13 9 6 4 1 0 358 358 2 2 1 1 360 355 360 360 359 357 356 352 349 348 351 350 349 349 347 343 347 352 350 346 345 348 347 339 342
303 303 279 304 337 328 42 12 55 0 349 350 16 10 8 14 246 162 351 59 100 238 337 317 332 35 100 127 125 118 114 104 59 81 74 63 42 38 22 9 23 29 43 19 16 19 11 14 13 8 5 2 356 357 356 359 360 357 357 360 2 357 352 358 356 353 357 350 349 347 348 347 347 347 346 345 346 347 347 346 343 341 340 335 342 343
328 331 278 309 327 26 101 20 59 49 330 344 13 50 354 5 2 32 292 29 18 63 286 20 264 275 124 52 116 116 118 120 101 66 92 42 59 31 20 8 349 25 34 36 24 18 11 11 6 356 3 354 357 352 358 353 359 355 360 1 357 355 352 353 350 352 348 350 344 346 343 343 343 342 343 343 344 345 345 343 343 340 341 341 334 339
95 257 269 295 263 283 92 147 94 136 102 275 35 63 10 33 332 41 10 301 348 267 275 200 351 275 147 105 124 140 146 136 130 96 95 89 85 7 29 18 336 15 54 40 30 6 4 1 359 352 359 351 355 350 346 352 355 352 353 356 356 354 348 349 343 342 342 340 342 341 340 338 340 342 341 342 341 343 343 341 339 342 342 338 334 333
313 248 296 275 270 12 64 18 334 59 353 336 12 90 70 64 134 197 226 292 264 287 302 301 180 242 228 152 160 155 159 146 135 114 127 98 84 357 17 27 338 346 13 51 24 13 345 341 349 351 353 351 346 350 348 345 350 344 347 350 350 349 343 344 343 340 339 337 336 335 336 337 336 340 340 340 339 338 340 338 338 339 338 335 335 334
12 159 138 291 317 294 316 342 338 307 49 44 319 252 139 206 119 217 254 31 305 242 184 100 245 256 239 174 191 171 168 154 146 147 131 121 51 60 356 349 320 331 304 79 9 349 349 345 356 347 341 340 336 339 343 341 342 345 338 345 345 340 337 337 337 337 335 335 331 332 333 333 335 336 336 336 334 334 335 336 335 337 336 334 333 332
251 287 3 29 22 4 336 334 324 323 331 312 256 263 339 9 306 23 341 280 248 264 139 220 252 277 141 207 192 207 267 46 119 127 128 133 143 94 311 337 304 293 278 122 313 336 346 343 345 342 334 325 329 332 335 336 336 332 331 336 337 331 333 332 332 333 332 331 330 329 330 330 332 332 331 329 330 330 330 331 332 333 332 333 330 327
268 310 242 222 204 231 254 285 325 336 320 300 291 293 282 258 251 165 203 257 225 273 269 238 239 280 277 278 285 283 339 336 14 83 90 74 54 60 38 307 309 288 276 142 287 269 348 344 345 323 318 319 322 324 327 332 331 327 328 329 331 328 325 323 326 328 330 326 326 324 325 328 329 327 325 325 324 323 324 326 328 329 329 330 327 324
296 281 237 233 240 247 269 277 287 310 288 283 288 284 260 262 234 228 208 229 12 11 282 239 233 251 263 264 286 315 320 313 26 99 93 159 193 206 263 282 296 309 286 235 288 285 318 316 319 315 306 317 316 317 320 325 317 317 323 325 324 323 321 318 322 322 321 321 320 321 320 321 322 321 319 318 317 318 320 322 323 324 323 325 324 324
123 260 249 237 250 257 260 276 283 279 257 269 274 276 278 258 236 233 239 235 242 225 241 269 322 301 277 276 288 286 294 288 121 325 243 252 232 223 322 313 305 301 295 264 258 277 313 326 312 306 312 313 316 314 314 313 313 316 318 313 314 313 310 309 319 315 316 317 314 312 313 316 316 315 316 316 316 317 320 321 320 319 320 319 320 318
17 232 258 307 290 274 263 259 266 266 269 264 257 261 260 258 245 238 247 243 227 242 250 266 271 267 268 274 278 281 236 184 275 243 257 245 246 253 260 288 295 291 292 278 263 271 293 306 307 307 314 317 318 317 312 308 305 308 314 316 311 308 301 312 306 306 308 308 308 309 309 309 311 314 315 315 314 317 317 318 318 318 318 317 315 316
103 289 44 319 295 283 273 244 243 246 261 273 267 257 260 257 257 240 239 246 246 259 257 263 266 270 267 262 264 179 200 209 214 246 236 243 246 261 278 279 286 292 282 271 267 271 290 301 302 308 317 315 314 312 313 302 298 303 306 297 298 299 299 304 303 303 302 303 302 303 305 308 308 311 314 311 313 313 315 317 318 316 315 314 314 313
132 275 358 38 321 291 264 16 298 309 297 280 278 273 258 252 255 244 225 220 211 234 243 249 257 255 279 227 197 216 218 222 232 222 235 251 253 279 279 276 276 280 280 266 254 269 300 304 309 317 314 312 312 313 311 306 299 302 293 291 291 289 294 297 293 296 298 298 300 302 304 303 303 306 306 309 311 313 315 314 314 314 314 314 314 312
182 287 341 332 318 261 271 21 315 314 299 289 261 242 231 218 213 230 220 199 207 211 237 232 243 249 248 190 203 226 238 253 246 226 216 257 256 257 268 275 274 270 272 260 250 279 293 303 312 308 302 303 311 313 306 301 300 294 289 289 284 290 292 285 285 290 296 296 297 299 300 302 303 301 302 304 307 311 314 314 312 312 312 312 311 311
60 85 259 293 241 279 343 349 329 351 325 253 251 299 154 186 192 227 246 231 238 192 233 226 256 269 279 284 278 281 278 268 255 219 185 213 243 260 262 273 271 261 260 254 286 297 294 292 291 286 286 295 300 297 298 295 288 284 281 282 289 288 281 284 286 286 289 289 292 295 298 301 301 300 300 300 304 309 309 311 310 309 307 307 308 310
175 187 229 235 275 281 345 341 336 257 246 228 272 260 280 281 192 231 254 247 246 257 266 271 269 269 268 274 276 272 269 266 253 266 250 235 249 257 263 264 269 263 255 298 301 291 282 281 284 289 294 292 286 289 294 295 288 288 290 289 290 282 280 280 283 287 287 289 289 292 296 298 299 300 300 301 304 305 304 305 307 306 307 306 307 307
228 207 240 258 227 292 312 213 312 235 268 312 290 275 246 221 231 278 283 259 247 243 245 254 258 261 263 264 270 279 289 272 270 249 230 236 236 253 264 271 269 297 297 283 281 281 286 285 287 289 280 263 272 277 279 287 291 290 286 286 281 283 279 281 284 285 287 289 290 292 294 294 295 298 300 302 302 302 303 303 300 303 305 304 302 297
221 234 227 289 188 219 226 234 244 314 314 291 287 111 118 173 164 173 241 260 221 246 243 250 257 259 266 270 277 288 311 338 304 270 221 242 251 251 245 295 303 280 273 279 281 288 284 279 279 276 271 267 264 276 284 285 285 281 282 284 280 280 283 284 285 286 284 284 290 293 293 292 293 295 297 298 299 301 302 301 300 299 302 300 300 299
215 183 209 135 271 183 271 299 306 303 270 282 136 67 58 84 90 84 53 284 230 244 240 243 253 260 265 269 265 277 16 326 280 273 232 246 246 250 278 283 293 291 291 286 279 276 273 270 272 275 273 277 279 277 278 278 275 279 282 282 283 283 282 284 283 284 284 284 288 290 291 293 294 293 291 293 296 297 297 298 296 293 296 293 296 297
334 239 297 237 278 357 284 244 241 252 245 199 209 169 111 92 97 92 357 288 265 226 230 209 235 240 235 235 255 317 316 268 266 269 245 243 257 279 281 268 267 276 275 268 262 267 276 276 269 270 279 284 287 286 284 282 280 281 282 281 281 278 280 281 281 282 285 287 289 289 290 293 292 291 290 288 290 294 296 295 292 291 289 286 287 288
336 227 154 249 245 223 244 260 255 210 261 273 137 149 139 115 77 54 334 277 303 37 188 191 211 210 226 229 226 222 219 263 270 263 233 253 264 268 279 286 283 273 269 268 272 269 270 275 287 292 287 285 285 288 288 285 282 278 277 279 277 280 279 279 279 280 284 289 290 290 292 292 291 289 287 289 292 293 290 288 288 288 288 286 285 287
191 227 195 221 228 241 228 256 285 270 251 246 195 165 141 111 78 94 241 252 206 196 167 155 210 224 230 237 216 245 229 237 261 267 257 267 282 281 274 271 273 276 279 278 275 278 283 280 275 276 279 282 285 285 282 281 282 282 281 280 281 278 277 278 280 286 289 291 292 292 291 289 286 289 291 292 291 289 284 282 282 285 287 289 288 285
195 207 236 202 241 228 221 231 251 275 259 240 208 156 140 93 167 217 235 173 165 199 216 198 219 226 224 225 223 233 244 245 258 269 275 275 269 271 271 271 274 278 276 275 279 285 285 286 285 285 285 282 277 274 275 278 279 281 281 281 279 279 280 282 285 291 294 293 291 290 287 286 289 292 293 291 288 285 283 281 282 283 284 283 284 284
181 166 200 194 211 199 193 240 305 283 269 190 152 133 169 172 222 217 177 198 165 193 205 222 213 231 214 242 231 239 249 254 263 272 277 278 275 276 277 274 272 270 273 280 284 280 281 285 283 280 279 277 273 271 271 271 275 278 280 280 281 285 287 290 294 294 293 291 288 285 285 287 289 291 290 285 282 283 287 288 285 280 277 278 278 278
160 175 204 210 173 189 180 181 217 212 226 156 151 180 196 211 215 194 187 252 240 231 244 241 228 222 231 246 257 258 255 263 268 266 269 268 267 271 272 271 270 270 272 269 268 274 274 275 274 275 273 272 268 270 271 273 277 278 280 281 287 293 296 297 296 296 293 288 284 285 285 285 287 285 280 279 282 287 287 285 281 278 275 271 271 274
176 206 181 221 178 194 213 221 229 196 213 203 202 201 192 212 230 243 245 243 248 246 220 234 244 241 236 242 253 256 265 261 265 260 264 269 269 266 268 268 267 268 269 272 270 264 261 264 271 273 275 273 274 275 277 272 276 283 285 288 298 299 300 299 298 295 288 284 284 285 286 287 285 280 277 280 285 286 283 280 279 279 274 271 268 267
177 207 226 268 241 246 258 245 253 226 226 222 226 244 254 245 238 238 243 255 244 251 251 254 252 239 238 234 248 257 250 257 265 270 269 272 273 272 270 270 269 266 264 266 269 266 263 264 267 272 274 277 277 281 277 277 281 289 288 297 300 298 299 298 296 292 287 286 285 285 286 284 280 278 278 281 280 275 273 273 275 274 275 272 269 266
241 220 232 240 251 55 265 178 226 241 242 233 234 241 244 242 244 234 242 241 249 248 250 245 244 246 243 244 244 254 257 253 261 265 268 269 269 272 273 272 269 262 260 261 259 262 265 265 270 272 277 283 287 287 287 295 295 291 298 299 297 296 295 295 291 288 287 285 284 283 281 280 281 283 284 281 278 275 272 270 269 270 271 270 270 267
245 191 240 244 244 223 253 252 251 242 236 243 239 248 253 253 250 244 239 243 245 248 244 245 237 245 237 246 247 253 260 256 258 266 269 268 269 270 270 268 264 262 259 256 260 257 263 266 267 275 284 287 291 294 300 301 298 297 295 292 292 294 293 288 286 285 284 284 284 283 282 282 280 280 280 277 276 277 275 270 266 266 267 268 267 268
189 135 221 222 243 252 266 268 258 268 261 251 253 249 248 251 255 252 244 248 251 256 257 255 233 235 233 243 247 253 262 263 258 260 263 266 267 267 265 262 260 258 259 260 260 258 258 262 274 279 286 287 292 296 300 298 296 295 291 288 290 291 290 286 286 286 286 284 284 281 279 278 277 277 277 277 275 269 267 269 267 265 265 261 262 268
185 210 225 248 258 256 241 252 251 263 265 221 230 240 246 247 250 255 256 254 251 251 252 254 251 239 237 240 243 245 252 258 257 254 259 262 263 263 262 264 265 264 263 257 258 261 270 273 275 281 282 284 289 294 292 291 290 288 287 289 293 296 292 292 290 287 284 283 282 281 281 280 278 277 276 276 278 277 273 266 274 283 286 287 279 277
210 224 209 228 234 253 251 249 242 241 261 261 258 251 234 235 239 245 245 245 246 244 243 246 252 255 251 246 232 235 246 253 256 256 265 270 268 264 264 264 266 267 270 274 303 307 298 292 293 292 289 285 288 285 285 286 286 287 290 302 305 296 287 289 287 285 284 284 282 280 282 281 279 275 274 274 274 274 281 287 281 274 273 272 273 274